sat.trackr.live / text

‹ back to catalog

STARLINK-31061

NORAD 58611 · 2023-200Y

PAYLOAD ACTIVE UNKNOWN

§ Identity

Operator
Country
US
Launch date
2023-12-19
Launch site
AFETR
Launch vehicle
Mass (kg)
RCS (m²)

Purposes: comms

External: N2YO · Heavens-Above · Gunter

§ Orbital elements

Epoch: 2026-09-20T01:08:52.692576Z

Period
94.27 min
Inclination
43.0018°
Eccentricity
0.0001705
Mean motion
15.27574845 rev/d
Perigee alt
481.9 km
Apogee alt
484.2 km
Semi-major
6,861.2 km
B*
3.7686e-6
RAAN
151.3597°
Arg perigee
271.0449°
Mean anomaly
89.0207°
Rev number
15,333

§ Raw data

STARLINK-310611 58611U 23200Y   26263.04783209 -.00000159  00000+0  37686-5 0  99902 58611  43.0018 151.3597 0001705 271.0449  89.0207 15.27574845153339

JSON: /api/v1/satellites/58611 · /tle

For live sub-satellite position, see the globe view (requires WebGL).

§ Visibility from observer

Set your observer location to see the next 7 days of passes ≥ 10°. The values pass through the URL so the page stays shareable.

No JS? Fill the form by hand. The geolocation button needs JavaScript.